Date String (YYYY-MM-DD hh:mm:ss) UTC,Instrument flags,absolute air pressure of the measurement (hPa),sample flow rate (lpm),inlet stack bypass flow (lpm),air temperature of the measurement (°C),ambient temperature measured by the external sensor (°C),aerosol sample conditioner tube jacket temperature (°C),OPC LED temperature (°C),internal box temperature (°C),relative humidity of the measurement (%),span deviation,mass concentration of particles derived from Lorenz-Mie calculation of OPC scattering (μg/m³),mass concentration of particles derived from Lorenz-Mie calculation of OPC scattering (μg/m³),mass concentration of particles derived from Lorenz-Mie calculation of OPC scattering (μg/m³)
DateTimeUTC,F1_M11,P_M11,Q1_M11,Q2_M11,T1_M11,T2_M11,T3_M11,T4_M11,T5_M11,U1_M11,ZSPAN_M11,X2_M11,X0_M11,X1_M11
2023-12-06 20:00:00,SystemResetWarning,0829.9,4.99,000.00,025.9,025.2,000.0,033.9,027.5,11.8,0000.0,0001.50,0004.60,0000.67
2023-12-06 20:01:00,SystemResetWarning,0829.9,5.00,000.00,026.0,025.3,000.0,034.0,027.6,11.8,0000.0,0001.49,0004.53,0000.66
2023-12-06 20:02:00,SystemResetWarning,0829.9,4.99,000.00,026.0,025.2,000.0,034.0,027.7,11.8,0000.0,0001.47,0004.43,0000.65
2023-12-06 20:03:00,SystemResetWarning,0829.8,4.99,000.00,026.0,023.7,000.0,034.0,027.5,11.5,0000.0,0001.46,0004.30,0000.65
2023-12-06 20:04:00,SystemResetWarning,0829.8,5.00,000.00,025.9,022.1,000.0,034.0,027.2,11.4,0000.0,0001.46,0004.57,0000.65
2023-12-06 20:05:00,SystemResetWarning,0829.8,5.01,000.00,025.8,021.9,000.0,033.9,027.0,11.6,0000.0,0001.46,0005.15,0000.64
2023-12-06 20:06:00,SystemResetWarning,0829.7,5.01,000.00,025.7,022.3,000.0,033.9,026.6,11.8,0000.0,0001.42,0004.89,0000.62
2023-12-06 20:07:00,SystemResetWarning,0829.7,5.00,000.00,025.6,022.7,000.0,033.8,026.6,11.9,0000.0,0001.46,0005.16,0000.61
2023-12-06 20:08:00,SystemResetWarning,0829.7,5.00,000.00,025.6,023.2,000.0,033.8,026.7,12.0,0000.0,0001.37,0005.18,0000.59
2023-12-06 20:09:00,SystemResetWarning,0829.7,4.99,000.00,025.6,023.5,000.0,033.8,026.9,12.0,0000.0,0001.35,0005.92,0000.57
2023-12-06 20:10:00,SystemResetWarning,0829.7,5.00,000.00,025.6,023.9,000.0,033.8,027.0,11.8,0000.0,0001.33,0005.24,0000.57
2023-12-06 20:11:00,SystemResetWarning,0829.7,5.01,000.00,025.6,024.1,000.0,033.8,027.1,11.7,0000.0,0001.34,0005.25,0000.55
2023-12-06 20:12:00,SystemResetWarning,0829.7,4.99,000.00,025.7,024.4,000.0,033.8,027.2,11.5,0000.0,0001.34,0005.28,0000.55
2023-12-06 20:13:00,SystemResetWarning,0829.7,5.00,000.00,025.7,024.6,000.0,033.8,027.2,11.5,0000.0,0001.28,0005.17,0000.53
2023-12-06 20:14:00,SystemResetWarning,0829.7,5.00,000.00,025.8,024.7,000.0,033.8,027.3,11.8,0000.0,0001.21,0005.10,0000.51
2023-12-06 20:15:00,SystemResetWarning,0829.7,5.00,000.00,025.8,024.9,000.0,033.8,027.4,11.9,0000.0,0001.17,0005.19,0000.49
2023-12-06 20:16:00,SystemResetWarning,0829.7,5.00,000.00,025.9,025.0,000.0,033.9,027.5,11.9,0000.0,0001.14,0004.29,0000.48
2023-12-06 20:17:00,SystemResetWarning,0829.7,5.00,000.00,025.9,025.2,000.0,033.9,027.5,11.9,0000.0,0001.15,0004.38,0000.47
2023-12-06 20:18:00,SystemResetWarning,0829.6,5.01,000.00,026.0,025.3,000.0,033.9,027.6,11.9,0000.0,0001.08,0004.19,0000.46
2023-12-06 20:19:00,SystemResetWarning,0829.6,4.99,000.00,026.0,024.7,000.0,033.9,027.6,11.9,0000.0,0001.09,0003.88,0000.46
2023-12-06 20:20:00,SystemResetWarning,0829.6,5.00,000.00,025.9,022.6,000.0,033.9,027.3,11.8,0000.0,0001.04,0003.07,0000.45
2023-12-06 20:21:00,SystemResetWarning,0829.5,5.01,000.00,025.8,021.8,000.0,033.9,027.1,11.4,0000.0,0001.01,0002.71,0000.45
2023-12-06 20:22:00,SystemResetWarning,0829.5,5.01,000.00,025.7,022.0,000.0,033.8,026.7,11.8,0000.0,0001.02,0003.19,0000.44
2023-12-06 20:23:00,SystemResetWarning,0829.5,4.99,000.00,025.6,022.5,000.0,033.8,026.6,12.0,0000.0,0001.02,0003.56,0000.43
2023-12-06 20:24:00,SystemResetWarning,0829.4,5.00,000.00,025.5,022.9,000.0,033.8,026.6,12.1,0000.0,0001.04,0004.18,0000.43
2023-12-06 20:25:00,SystemResetWarning,0829.4,5.00,000.00,025.5,023.3,000.0,033.7,026.8,12.1,0000.0,0001.07,0004.15,0000.43
2023-12-06 20:26:00,SystemResetWarning,0829.3,5.01,000.00,025.5,023.6,000.0,033.7,026.9,11.9,0000.0,0001.10,0004.17,0000.44
2023-12-06 20:27:00,SystemResetWarning,0829.3,4.99,000.00,025.6,023.9,000.0,033.7,027.0,11.8,0000.0,0001.12,0004.20,0000.45
2023-12-06 20:28:00,SystemResetWarning,0829.3,5.00,000.00,025.6,024.2,000.0,033.7,027.1,11.8,0000.0,0001.14,0004.28,0000.45
2023-12-06 20:29:00,SystemResetWarning,0829.3,5.00,000.00,025.7,024.4,000.0,033.7,027.1,11.6,0000.0,0001.19,0004.80,0000.46
2023-12-06 20:30:00,SystemResetWarning,0829.4,5.00,000.00,025.7,024.6,000.0,033.8,027.2,11.7,0000.0,0001.20,0006.25,0000.45
2023-12-06 20:31:00,SystemResetWarning,0829.3,5.01,000.00,025.7,024.8,000.0,033.8,027.3,11.7,0000.0,0001.20,0006.84,0000.45
2023-12-06 20:32:00,SystemResetWarning,0829.3,5.01,000.00,025.8,024.9,000.0,033.8,027.4,11.7,0000.0,0001.24,0008.08,0000.45
2023-12-06 20:33:00,SystemResetWarning,0829.3,5.01,000.00,025.8,025.0,000.0,033.8,027.4,11.7,0000.0,0001.22,0007.91,0000.46
2023-12-06 20:34:00,SystemResetWarning,0829.3,5.00,000.00,025.9,025.2,000.0,033.9,027.5,11.8,0000.0,0001.21,0008.03,0000.47
2023-12-06 20:35:00,SystemResetWarning,0829.3,5.00,000.00,026.0,025.3,000.0,033.9,027.6,11.7,0000.0,0001.22,0007.76,0000.48
2023-12-06 20:36:00,SystemResetWarning,0829.4,4.98,000.00,026.0,024.8,000.0,033.9,027.6,11.7,0000.0,0001.31,0007.86,0000.49
2023-12-06 20:37:00,SystemResetWarning,0829.4,5.00,000.00,025.9,022.9,000.0,033.9,027.4,11.6,0000.0,0001.35,0007.91,0000.50
2023-12-06 20:38:00,SystemResetWarning,0829.3,5.00,000.00,025.8,021.9,000.0,033.9,027.1,11.7,0000.0,0001.33,0007.85,0000.49
2023-12-06 20:39:00,SystemResetWarning,0829.2,5.01,000.00,025.7,022.1,000.0,033.8,026.8,11.8,0000.0,0001.29,0008.31,0000.50
2023-12-06 20:40:00,SystemResetWarning,0829.2,5.00,000.00,025.6,022.5,000.0,033.8,026.6,12.0,0000.0,0001.27,0008.72,0000.50
2023-12-06 20:41:00,SystemResetWarning,0829.2,4.99,000.00,025.5,022.9,000.0,033.8,026.7,12.1,0000.0,0001.24,0008.13,0000.51
2023-12-06 20:42:00,SystemResetWarning,0829.1,5.00,000.00,025.5,023.3,000.0,033.7,026.8,12.0,0000.0,0001.30,0008.36,0000.53
2023-12-06 20:43:00,SystemResetWarning,0829.1,5.00,000.00,025.6,023.7,000.0,033.7,026.9,12.3,0000.0,0001.31,0007.55,0000.53
2023-12-06 20:44:00,SystemResetWarning,0829.1,4.99,000.00,025.6,024.0,000.0,033.7,027.0,12.5,0000.0,0001.31,0007.50,0000.54
2023-12-06 20:45:00,SystemResetWarning,0829.1,5.00,000.00,025.6,024.2,000.0,033.7,027.1,12.4,0000.0,0001.35,0007.14,0000.55
2023-12-06 20:46:00,SystemResetWarning,0829.1,5.00,000.00,025.7,024.4,000.0,033.7,027.2,12.4,0000.0,0001.39,0007.22,0000.55
2023-12-06 20:47:00,SystemResetWarning,0829.1,5.00,000.00,025.7,024.6,000.0,033.8,027.3,12.3,0000.0,0001.35,0007.24,0000.55
2023-12-06 20:48:00,SystemResetWarning,0829.1,5.00,000.00,025.8,024.8,000.0,033.8,027.3,12.2,0000.0,0001.33,0007.60,0000.55
2023-12-06 20:49:00,SystemResetWarning,0829.1,5.01,000.00,025.8,024.9,000.0,033.8,027.4,12.5,0000.0,0001.38,0008.31,0000.57
2023-12-06 20:50:00,SystemResetWarning,0829.2,5.01,000.00,025.9,025.1,000.0,033.8,027.5,12.4,0000.0,0001.41,0007.84,0000.59
2023-12-06 20:51:00,SystemResetWarning,0829.1,5.00,000.00,025.9,025.2,000.0,033.9,027.5,12.7,0000.0,0001.43,0007.06,0000.60
2023-12-06 20:52:00,SystemResetWarning,0829.1,4.99,000.00,026.0,024.7,000.0,033.9,027.6,12.5,0000.0,0001.51,0006.86,0000.62
2023-12-06 20:53:00,SystemResetWarning,0829.1,5.00,000.00,025.9,022.7,000.0,033.9,027.3,12.4,0000.0,0001.58,0006.85,0000.69
2023-12-06 20:54:00,SystemResetWarning,0829.0,5.01,000.00,025.8,021.8,000.0,033.8,027.0,12.5,0000.0,0001.63,0007.31,0000.78
2023-12-06 20:55:00,SystemResetWarning,0829.0,5.00,000.00,025.6,022.0,000.0,033.8,026.7,12.6,0000.0,0001.67,0007.63,0000.84
2023-12-06 20:56:00,SystemResetWarning,0828.9,5.00,000.00,025.5,022.4,000.0,033.7,026.5,12.8,0000.0,0001.68,0007.75,0000.88
2023-12-06 20:57:00,SystemResetWarning,0828.9,5.00,000.00,025.5,022.8,000.0,033.7,026.6,13.0,0000.0,0001.72,0007.74,0000.92
2023-12-06 20:58:00,SystemResetWarning,0828.9,5.00,000.00,025.5,023.2,000.0,033.7,026.7,12.9,0000.0,0001.74,0007.95,0000.97
2023-12-06 20:59:00,SystemResetWarning,0829.0,4.99,000.00,025.5,023.6,000.0,033.7,026.8,12.8,0000.0,0001.77,0008.64,0001.02
